Avalon, CA

6:06 PM PDT on May 27, 2017 (GMT -0700)
Catalina

Weather History for KAVX - March, 2013

Change the Weather History Date:

Monday, March 25, 2013

  Actual Average Record
Temperature  
Mean Temperature 62 °F -  
Max Temperature 71 °F 60 °F 79 °F (2015)
Min Temperature 54 °F 49 °F 44 °F (2006)
Degree Days  
Heating Degree Days 4    
Growing Degree Days 12 (Base 50)    
Moisture  
Dew Point 41 °F    
Average Humidity 49    
Maximum Humidity 75    
Minimum Humidity 25    
Precipitation  
Precipitation 0.00 in - - ()
Sea Level Pressure  
Sea Level Pressure 29.92 in    
Wind  
Wind Speed 2 mph (SSW)    
Max Wind Speed 7 mph    
Max Gust Speed -    
Visibility 10 miles    
Events      
Averages and records for this station are not official NWS values.
T = Trace of Precipitation, MM = Missing Value Source: NWS Daily Summary

Daily Weather History Graph

Daily Weather History Graph

Search for Another Location

Airport or City:

Trip Planner

Search our weather history database for the weather conditions in past years. The results will help you decide how hot, cold, wet, or windy it might be!

Date:

Astronomy

Mar. 25, 2013 Rise Set
Actual Time 6:50 AM PDT 7:09 PM PDT
Civil Twilight 6:25 AM PDT 7:34 PM PDT
Nautical Twilight 5:56 AM PDT 8:03 PM PDT
Astronomical Twilight 5:26 AM PDT 8:32 PM PDT
Moon 5:48 PM PDT (3/25) 5:32 AM PDT (3/25)
Length of Visible Light 13h 08m
Length of Day
12h 19m
Waxing Gibbous, 97% of the Moon is Illuminated
Mar 25
Waxing Gibbous
Mar 27
Full
Apr 2
Last Quarter
Apr 10
New
Apr 18
First Quarter

Hourly Weather History & Observations

Time (PDT) Temp. Dew Point Humidity Pressure Visibility Wind Dir Wind Speed Gust Speed Precip Events Conditions
12:51 AM 64.0 °F 27.0 °F 25% 29.91 in 10.0 mi Calm Calm - N/A   Clear
2:51 AM 60.1 °F 27.0 °F 28% 29.91 in 10.0 mi SE 3.5 mph - N/A   Clear
3:51 AM 57.9 °F 26.1 °F 30% 29.91 in 10.0 mi SE 3.5 mph - N/A   Clear
6:51 AM 59.0 °F 35.1 °F 41% 29.93 in 10.0 mi Calm Calm - N/A   Clear
7:51 AM 59.0 °F 41.0 °F 51% 29.93 in 10.0 mi SE 3.5 mph - N/A   Clear
8:51 AM 63.0 °F 37.0 °F 38% 29.94 in 10.0 mi SE 4.6 mph - N/A   Clear
9:51 AM 64.9 °F 42.1 °F 43% 29.94 in 10.0 mi Variable 3.5 mph - N/A   Clear
10:51 AM 64.9 °F 52.0 °F 63% 29.95 in 10.0 mi Calm Calm - N/A   Clear
11:51 AM 66.9 °F 53.1 °F 61% 29.94 in 10.0 mi Calm Calm - N/A   Clear
12:51 PM 66.0 °F 52.0 °F 60% 29.94 in 10.0 mi Variable 4.6 mph - N/A   Clear
1:51 PM 68.0 °F 53.1 °F 59% 29.91 in 10.0 mi Variable 3.5 mph - N/A   Clear
2:51 PM 69.1 °F 52.0 °F 54% 29.90 in 10.0 mi West 6.9 mph - N/A   Clear
4:51 PM 63.0 °F 52.0 °F 67% 29.91 in 10.0 mi WSW 5.8 mph - N/A   Clear
5:51 PM 62.1 °F 53.1 °F 72% 29.90 in 9.0 mi SW 5.8 mph - N/A   Clear
6:51 PM 62.1 °F 48.0 °F 60% 29.89 in 10.0 mi Calm Calm - N/A   Clear
7:51 PM 57.9 °F 39.0 °F 49% 29.91 in 10.0 mi South 4.6 mph - N/A   Clear
8:51 PM 54.0 °F 46.0 °F 75% 29.93 in 10.0 mi West 4.6 mph - N/A   Clear
9:51 PM 59.0 °F 28.9 °F 32% 29.93 in 10.0 mi NNW 4.6 mph - N/A   Clear
10:51 PM 57.9 °F 30.0 °F 35% 29.94 in 10.0 mi Calm Calm - N/A   Clear
11:51 PM 57.9 °F 30.0 °F 35% 29.93 in 10.0 mi Calm Calm - N/A   Clear